Weather History for Maputo, Mozambique

Change the Weather History Date:

Friday, January 18, 2013

  Actual Average Record
Temperature  
Mean Temperature 82 °F -  
Max Temperature 89 °F 84 °F 98 °F (2002)
Min Temperature 75 °F 73 °F 66 °F (2000)
Cooling Degree Days 17    
Growing Degree Days 32 (Base 50)    
Moisture  
Dew Point 73 °F    
Average Humidity 73    
Maximum Humidity 94    
Minimum Humidity 47    
Precipitation  
Precipitation 0.35 in - - ()
Sea Level Pressure  
Sea Level Pressure 29.82 in    
Wind  
Wind Speed 7 mph ()    
Max Wind Speed 18 mph    
Max Gust Speed -    
Visibility 9.4 miles    
Events Thunderstorm    
Averages and records for this station are not official NWS values.
T = Trace of Precipitation, MM = Missing Value Source: Averaged Metar Reports

Daily Weather History Graph

Daily Weather History Graph

Search for Another Location

Airport:

Trip Planner

Search our weather history database for the weather conditions in past years. The results will help you decide how hot, cold, wet, or windy it might be!

Date:

Astronomy

Jan. 18, 2013 Rise Set
Actual Time 5:14 AM CAT 6:45 PM CAT
Civil Twilight 4:48 AM CAT 7:11 PM CAT
Nautical Twilight 4:18 AM CAT 7:41 PM CAT
Astronomical Twilight 3:46 AM CAT 8:12 PM CAT
Moon 11:36 AM CAT (1/18) 11:09 PM CAT (1/18)
Length of Visible Light 14h 22m
Length of Day
13h 31m
Waxing Crescent, 44% of the Moon is Illuminated
Jan 18
Waxing Crescent
Jan 19
First Quarter
Jan 27
Full
Feb 3
Last Quarter
Feb 10
New

Hourly Weather History & Observations

Time (CAT) Temp. Heat Index Dew Point Humidity Pressure Visibility Wind Dir Wind Speed Gust Speed Precip Events Conditions
12:00 AM 78.8 °F - 75.2 °F 89% 29.89 in 6.2 mi NE 8.1 mph - N/A   Partly Cloudy
1:00 AM 78.8 °F - 75.2 °F 89% 29.89 in 6.2 mi NNE 3.5 mph - N/A   Scattered Clouds
2:00 AM 77 °F - 74 °F 87% 29.88 in 19 mi NNE 4.6 mph - -   Partly Cloudy
2:00 AM 77.0 °F - 73.4 °F 89% 29.86 in 6.2 mi NNE 4.6 mph - N/A   Scattered Clouds
3:00 AM 77.0 °F - 73.4 °F 89% 29.86 in 6.2 mi North 3.5 mph - N/A   Scattered Clouds
5:00 AM 76 °F - 73 °F 88% 29.88 in 19 mi NNE 3.5 mph - -   Partly Cloudy
5:00 AM 75.2 °F - 73.4 °F 94% 29.86 in 6.2 mi NNE 3.5 mph - N/A   Scattered Clouds
6:00 AM 77.0 °F - 73.4 °F 89% 29.89 in 6.2 mi NE 5.8 mph - N/A   Scattered Clouds
7:00 AM 82.4 °F 88.2 °F 73.4 °F 74% 29.89 in 6.2 mi North 6.9 mph - N/A   Partly Cloudy
8:00 AM 82 °F - 72 °F 65% 29.90 in 19 mi North 8.1 mph - -   Scattered Clouds
8:00 AM 82.4 °F 87.2 °F 71.6 °F 70% 29.89 in 6.2 mi North 8.1 mph - N/A   Partly Cloudy
9:00 AM 84.2 °F 90.9 °F 73.4 °F 70% 29.89 in 6.2 mi NNE 6.9 mph - N/A   Scattered Clouds
11:00 AM 89 °F - 74 °F 54% 29.86 in 19 mi NE 5.8 mph - -   Partly Cloudy
11:00 AM 87.8 °F 97.6 °F 75.2 °F 66% 29.83 in 6.2 mi NE 5.8 mph - N/A   Scattered Clouds
1:00 PM 87.8 °F 95.6 °F 73.4 °F 62% 29.80 in 6.2 mi East 12.7 mph - N/A   Scattered Clouds
2:00 PM 87 °F - 73 °F 54% 29.79 in 19 mi East 16.1 mph - -   Partly Cloudy
2:00 PM 87.8 °F 95.6 °F 73.4 °F 62% 29.77 in 6.2 mi East 16.1 mph - N/A   Partly Cloudy
3:00 PM 87.8 °F 93.8 °F 71.6 °F 58% 29.74 in 6.2 mi East 15.0 mph - N/A   Partly Cloudy
4:00 PM 84.2 °F 89.6 °F 71.6 °F 66% 29.71 in 6.2 mi East 18.4 mph - N/A   Partly Cloudy
5:00 PM 86 °F - 69 °F 47% 29.75 in 19 mi East 16.1 mph - -   Partly Cloudy
5:00 PM 86.0 °F 90.4 °F 69.8 °F 58% 29.71 in 6.2 mi East 16.1 mph - N/A   Partly Cloudy
6:00 PM 82.4 °F 87.2 °F 71.6 °F 70% 29.74 in 6.2 mi ENE 13.8 mph - N/A   Scattered Clouds
7:00 PM 80.6 °F 85.4 °F 73.4 °F 79% 29.74 in 6.2 mi ENE 11.5 mph - N/A   Scattered Clouds
8:00 PM 81 °F - 74 °F 72% 29.78 in 16 mi ENE 12.7 mph - - Thunderstorm Thunderstorm
8:00 PM 80.6 °F 85.4 °F 73.4 °F 79% 29.77 in 6.2 mi ENE 12.7 mph - N/A Thunderstorm Thunderstorm
9:00 PM 80.6 °F 85.4 °F 73.4 °F 79% 29.80 in 6.2 mi East 13.8 mph - N/A Thunderstorm Thunderstorm
10:00 PM 80.6 °F 85.4 °F 73.4 °F 79% 29.80 in 6.2 mi ENE 13.8 mph - N/A Thunderstorm Thunderstorm